NOAA 16 DEB, 41283

Orbit data source: Space-Track

NOAA 16 DEB, 41283 is space debris in SSO originally from a launch on Thu, 21 Sep 2000 UTC launched from the Air Force Western Test Range (AFWTR). Debris objects in space refer to the collection of defunct objects orbiting the Earth. Examples of debris include non-operational satellites, rocket bodies, and fragments generated from explosions, collisions, or faulty payload assembly.

Loading next visibility...
Identifier
41283, 2000-055GK
Orbit
SSO
Country
Flag of USUS
Related business
Manufacturer
Unknown
Mission
Spacecraft
Bus & Motor
Unknown
Mass
Unknown
Launch date (UTC)
2000-09-21 (26 years ago)
Launch vehicle
Unknown
Launch site
Air Force Western Test Range (AFWTR)
Object type
Payload
Rocket body
Debris
Shape & HBR
Unknown shape, 0.1 m
Radar Cross Section
Small (<0.1 m²)

Expand to show TLE details & history
Last TLE update: 9 hours ago

TLE from 9 hours ago
0 NOAA 16 DEB
1 41283U 00055GK  26126.38649878  .00002163  00000-0  12469-2 0  9994
2 41283  98.8398 105.9381 0061224 115.7250 245.0257 14.09200016530756
Epoch: 2026-05-06T09:16Z
TLE epoch observation values (Epoch: 2026-05-06T09:16:33.494Z)
Latitude
-0.00008°
Longitude
102.55082°
Altitude
883.948 km
Speed
7.401 km/s
True Right ascension
07h 03m 45s
True Declination
0° 00' 00"
Sunlit
Object was in daylight at epoch
Visualization orbit readout
Latitude
Unknown
Longitude
Unknown
Altitude
Unknown
Speed
Unknown
Apparent Right ascension
Unknown
Apparent Declination
Unknown
Sunlit
N/A
Visualization observer readout
Local Sidereal Time
02:17:05
Azimuth
Unknown
Elevation
Unknown
Doppler factor
Unknown
Orbital elements
Apogee altitude
903.6 km
Perigee altitude
814.979 km
Semi-major axis
7,237.427 km
Eccentricity
0.00612
Inclination
98.8398°
RAAN
105.9381°
Arg. of periapsis
115.725°
True anomaly
244.39179°
Mean anomaly
245.0257°
Eccentric anomaly
244.70854°
Mean motion
3.52506 °/min
Orbital period
102.13 mins
BSTAR
0.0012469
Loading maneuver chart data...
Computing Atmospheric mass density...
Loading historical data...
Loading historical data...
Loading historical data...
Loading historical data...
Loading historical data...
Loading historical data...
Loading historical data...

Documentation

Showing up to 5 results
|